Location: Llanfihangel-Ystrad
(52.1833°N, 4.1667°W)
Time: 02:38:35
(UTC+00:00)

STARLINK-1176 - Pass Details

Date: 17 February 2020
Orbit: 379 x 380 km, 53.0° (Epoch: 05 April)

Event Time Altitude Azimuth Distance (km) Brightness Sun altitude
Exits shadow 04:52:47 30° 77° (ENE) 726 4.9 -24.5°
Drops below altitude 10° 04:54:32 10° 79° (ENE) 1,411 6.8 -24.3°
Enters shadow 05:48:47 -72° 270° (W) 12,506 10.5 -16.0°
Maximum altitude 06:27:19 82° 8° (N) 393 2.9 -10.1°
